Theta_e
297 288 286 286 288 290 290 291 292 293 290 290 289 287 287 287 288 291 292 294 293 291 288 290 290 290 291 292 294 295 295 293 293 294 295 296 297 297 297 298 298 298 300 302 303 305 306 308 310 311 312 312 313 315 316 316 317 316 316 315 314 314 314 314 313 313 313 314 312 310 315 315 316 316 313 315 315 317 318 320 322 322 327 327 324 322
293 289 289 290 293 293 293 292 291 291 289 289 287 288 286 288 288 290 292 293 292 292 286 287 288 290 291 292 293 294 293 294 296 296 295 296 295 296 296 297 298 299 299 302 301 303 304 304 306 308 311 310 312 313 314 315 316 315 313 314 315 312 313 314 314 313 314 315 316 316 315 312 315 314 314 315 314 314 314 316 319 319 321 326 325 321
288 287 289 294 294 293 292 292 290 291 290 288 287 285 286 285 288 292 292 292 293 291 288 287 289 292 293 293 294 294 295 297 298 297 297 297 296 297 297 297 298 298 299 299 299 302 304 304 306 308 309 311 313 313 313 313 312 311 311 312 312 312 313 313 313 313 313 310 309 311 308 312 306 307 310 311 309 310 312 313 315 318 319 323 324 322
286 287 293 295 293 293 291 290 290 289 288 287 286 285 283 285 289 285 287 292 293 291 289 288 288 291 294 294 295 296 296 297 298 297 297 297 297 298 298 298 298 297 298 299 300 302 303 304 306 306 307 309 309 309 309 310 311 312 310 310 310 311 312 311 310 310 307 308 306 306 307 306 304 302 303 306 305 307 310 313 316 317 318 319 322 322
286 291 294 294 293 293 291 291 288 287 289 287 287 283 284 289 290 288 289 291 291 290 291 290 288 288 290 291 292 293 295 296 298 297 297 298 298 299 298 297 298 299 299 299 299 301 302 303 305 306 306 306 308 309 310 310 311 313 311 311 311 311 311 310 308 309 308 308 306 302 302 302 302 302 303 305 306 309 310 312 313 316 316 317 318 321
289 292 295 293 293 291 291 290 288 288 287 286 288 290 289 288 290 292 291 289 284 281 288 290 280 279 283 288 290 294 293 293 293 295 296 297 297 297 297 298 299 300 300 300 302 303 304 305 303 302 303 305 307 308 309 309 311 311 310 310 310 309 309 309 308 309 309 308 307 304 304 304 303 301 301 305 307 305 307 310 311 312 314 315 315 317
289 294 294 293 292 290 289 288 289 289 283 285 285 293 291 290 289 289 288 285 279 279 288 290 282 279 282 289 290 290 291 293 293 292 296 296 297 296 297 299 299 300 300 300 301 301 302 301 302 302 304 305 306 307 307 307 308 309 309 309 309 309 308 308 308 308 308 307 307 307 307 307 307 307 305 304 304 306 305 307 307 309 310 313 314 314
292 294 292 292 291 289 288 289 291 290 286 283 289 293 291 291 290 289 288 286 281 283 287 291 287 281 282 287 291 293 292 291 291 293 294 295 295 296 297 299 299 300 299 301 301 302 303 303 304 304 304 305 306 306 306 307 307 307 308 308 308 308 307 307 308 308 308 307 306 306 306 306 306 306 306 306 306 306 305 305 305 305 307 310 312 313
293 290 291 291 289 288 288 289 292 291 287 287 293 292 292 292 290 288 288 285 285 283 282 281 288 283 279 284 288 289 288 289 291 293 294 295 294 294 296 298 298 298 300 301 301 300 301 302 303 304 304 304 304 305 306 306 307 307 307 307 307 307 307 306 307 307 307 307 307 307 307 306 306 306 304 305 304 305 304 304 303 303 304 306 308 311
294 292 293 294 291 287 290 291 291 293 290 293 292 293 292 290 289 288 282 286 281 279 279 284 286 278 283 282 288 288 287 288 290 292 294 295 295 294 295 297 299 299 299 300 301 300 300 301 302 302 302 302 304 305 305 305 306 306 306 306 306 306 306 306 306 307 306 306 306 306 306 305 305 306 305 305 303 303 303 303 302 302 301 303 304 306
294 295 295 294 291 291 290 292 291 293 292 293 291 291 289 287 284 281 282 278 279 275 277 285 288 282 279 282 285 288 288 290 292 291 292 293 294 296 297 299 299 300 299 299 299 298 299 299 300 300 302 302 301 303 304 305 305 305 306 306 305 305 305 305 306 306 305 306 306 306 306 305 305 307 306 304 303 302 302 302 301 300 300 301 302 303
292 292 293 292 294 293 291 291 292 292 293 292 288 283 282 282 280 279 279 277 276 274 277 283 288 285 277 277 285 289 289 290 292 291 292 293 292 300 300 299 299 299 298 297 297 297 297 298 298 299 300 301 302 302 303 304 304 305 305 305 305 303 304 305 305 304 305 306 306 306 306 306 306 307 306 305 304 302 301 302 300 300 299 299 300 301
287 288 291 293 294 293 289 290 289 287 288 289 287 284 279 275 276 275 276 276 274 276 278 280 285 283 282 284 289 288 290 291 291 293 292 291 299 299 300 300 298 297 297 297 296 296 297 299 299 299 299 299 301 303 303 304 304 304 304 304 304 303 303 304 304 303 304 304 305 305 305 305 306 307 307 306 305 303 302 301 300 299 298 299 299 299
284 285 291 291 292 294 293 289 285 285 287 287 286 281 277 274 273 270 270 273 273 278 281 284 285 283 282 285 291 293 294 293 291 290 289 293 294 296 300 298 298 297 297 297 297 296 297 298 298 298 299 300 301 302 303 303 303 304 304 303 304 303 303 303 303 303 303 303 304 304 305 306 306 307 308 307 306 304 303 302 300 299 299 298 300 299
278 279 286 289 287 292 293 292 291 287 288 289 286 287 282 276 273 270 271 274 276 276 279 281 281 280 276 284 291 292 292 292 293 293 292 293 294 293 293 296 296 295 294 295 296 297 298 298 297 298 299 300 300 302 302 303 303 303 303 303 303 303 302 302 302 302 302 303 303 303 304 305 306 307 308 308 307 304 304 303 301 299 300 299 300 300
284 281 283 294 292 295 293 293 292 289 288 286 287 287 279 283 278 275 272 273 272 274 275 278 281 280 284 288 289 292 292 293 292 292 293 295 294 294 297 298 298 296 297 296 296 297 297 297 297 297 298 299 300 301 302 302 302 302 303 302 303 303 302 302 301 301 302 302 302 302 303 304 305 306 308 307 305 305 305 304 302 300 300 300 300 300
282 279 289 293 292 294 294 294 292 292 283 284 288 284 285 285 285 279 276 279 275 273 277 275 281 284 284 287 293 295 293 294 291 292 292 295 295 292 294 296 294 297 296 296 298 298 298 296 297 298 298 298 299 300 302 302 303 303 302 302 302 302 302 302 301 301 301 301 301 302 303 304 304 305 306 307 305 304 304 304 303 301 300 300 300 299
282 279 287 289 288 291 291 292 293 292 289 287 282 287 290 289 286 281 275 272 273 273 275 276 279 281 277 280 285 288 289 290 288 293 293 294 291 293 296 296 295 295 297 299 299 298 298 299 299 299 299 299 300 301 301 302 302 303 303 302 302 302 302 302 301 300 300 300 300 301 302 303 304 305 306 306 305 303 303 303 302 302 300 299 299 299
287 280 284 288 288 290 292 294 293 293 293 287 284 289 289 280 280 281 275 273 271 268 272 274 278 281 282 285 286 284 287 288 288 289 290 292 293 294 294 295 295 294 295 296 298 298 298 298 299 299 299 299 299 300 301 302 302 302 302 302 302 302 302 302 302 300 300 300 301 301 301 302 303 305 305 305 304 302 302 302 301 301 301 300 299 298
288 282 281 286 288 289 289 289 285 286 292 292 292 290 287 282 275 278 280 274 275 271 270 277 276 280 284 283 286 289 291 291 292 290 290 293 294 294 294 296 296 295 295 297 298 298 299 299 299 299 299 298 299 299 300 301 301 301 302 301 301 301 300 300 300 300 299 299 299 300 300 301 303 303 304 304 303 302 302 302 301 300 300 299 298 298
286 283 276 284 285 288 284 287 286 289 287 286 286 285 287 284 286 281 282 279 277 266 269 270 275 281 283 288 288 290 291 292 291 292 293 293 293 293 294 296 295 295 294 296 298 298 298 298 297 297 297 298 296 297 299 300 301 302 301 301 301 301 300 300 301 300 300 299 299 298 299 300 301 302 304 303 302 301 301 302 300 300 300 298 297 296
284 283 279 282 283 283 285 289 291 291 294 291 290 287 289 284 281 277 277 281 275 277 273 270 276 284 285 290 292 291 292 292 291 293 293 293 294 294 294 294 294 295 295 297 298 297 297 296 295 294 293 293 293 296 297 300 300 300 301 301 300 300 300 300 300 300 300 298 299 298 299 299 300 302 303 302 302 301 301 301 300 300 298 297 296 295
290 282 281 280 284 287 287 289 291 291 292 290 289 288 291 288 286 279 276 275 279 277 274 276 274 283 289 290 289 290 290 291 291 292 294 293 292 292 294 294 294 295 297 297 296 295 295 294 294 294 294 294 296 297 296 297 300 301 300 300 300 299 300 300 301 300 299 298 298 298 298 298 298 299 300 300 301 300 300 299 299 298 297 296 294 293
294 282 280 281 285 286 289 289 289 291 292 290 289 286 287 286 285 283 280 280 282 278 279 278 275 283 289 292 291 293 292 290 290 291 293 294 294 294 293 296 298 298 298 296 293 293 292 290 291 291 292 294 295 295 296 298 299 300 299 300 299 299 300 299 300 299 298 297 296 296 296 296 296 295 297 298 300 299 299 298 298 296 297 295 293 292
285 283 284 277 274 278 282 284 285 286 288 284 283 286 288 288 288 282 279 278 280 280 283 280 276 283 290 289 287 289 291 294 293 295 292 295 293 294 296 297 297 297 296 294 293 293 292 290 291 294 294 295 295 295 295 297 298 298 299 298 299 300 299 299 298 298 298 295 294 292 293 293 294 295 295 297 298 298 298 297 297 296 296 295 292 292
289 285 284 277 277 275 273 277 279 281 285 284 282 288 291 289 287 285 283 280 280 281 280 278 281 287 292 289 292 291 290 293 291 290 291 292 294 296 298 298 296 296 297 294 294 293 295 294 291 291 292 294 294 294 294 295 296 297 298 298 299 299 298 298 297 297 297 295 293 293 292 293 293 294 295 296 297 298 298 297 296 295 295 295 293 291
284 285 287 286 283 281 283 283 284 287 283 283 285 287 288 289 289 289 285 282 282 285 281 283 286 288 288 289 291 291 290 291 292 292 292 293 292 291 292 293 294 295 295 296 297 297 292 291 293 295 294 294 294 293 294 294 295 296 297 297 297 298 298 297 296 297 297 295 293 293 293 293 293 294 294 294 295 296 297 296 296 295 294 294 294 292
286 286 287 287 287 287 288 285 287 290 287 288 287 286 288 288 287 287 285 283 288 283 280 286 287 285 288 289 289 289 287 288 289 290 291 291 292 293 294 293 294 293 293 295 296 297 297 298 296 294 294 293 294 293 293 294 295 296 296 297 297 297 297 297 295 295 295 294 294 294 294 293 293 293 293 293 294 294 294 295 295 294 294 293 293 292
287 286 288 287 286 287 286 287 288 289 289 289 289 288 286 288 287 286 286 289 288 284 282 287 286 285 289 290 291 292 291 293 293 294 294 293 292 292 294 296 295 294 295 296 297 298 297 297 297 296 295 295 292 292 293 293 294 293 295 296 296 296 297 296 294 294 295 294 294 295 295 293 292 292 292 292 292 292 293 293 293 293 293 292 292 292
289 286 287 288 287 287 286 286 287 287 286 286 287 288 288 288 288 288 289 290 289 286 288 289 288 288 291 290 290 292 292 292 292 292 292 293 294 296 294 294 295 296 296 297 298 298 298 298 296 296 296 294 294 294 294 294 294 294 295 295 295 295 296 293 293 294 294 295 295 296 294 292 291 291 291 291 291 291 292 291 291 291 291 291 292 292
290 286 290 286 286 286 287 285 286 285 285 284 283 284 286 287 289 289 290 290 290 288 289 289 288 288 293 292 292 292 294 294 294 294 295 297 297 295 294 294 295 296 296 296 296 297 298 298 296 295 295 295 295 295 295 296 295 295 294 294 294 294 295 293 293 294 295 295 296 296 293 291 291 291 291 291 291 291 290 290 290 290 290 290 290 291
289 285 284 284 284 284 286 284 283 284 285 283 284 286 286 285 284 286 286 289 288 287 288 288 286 288 293 293 293 293 293 293 295 296 296 297 296 294 293 295 296 296 295 297 297 297 296 296 296 297 297 298 298 296 295 295 295 293 294 295 294 295 292 292 293 294 295 296 295 294 293 292 291 290 291 291 291 290 289 289 289 290 290 289 289 289
286 286 284 283 283 284 287 284 283 283 284 284 285 287 289 289 287 286 289 290 290 291 286 285 287 293 295 293 291 294 294 294 294 296 297 296 294 294 295 296 297 296 294 295 296 296 296 297 298 298 298 297 298 298 295 295 294 294 295 295 295 292 291 292 293 294 295 295 294 294 293 292 291 291 290 290 290 290 289 288 289 289 289 289 289 289
287 286 284 286 283 284 287 283 284 283 278 280 292 294 292 289 289 287 287 289 291 291 290 292 292 294 294 293 292 292 294 296 297 299 299 298 294 292 293 295 295 294 295 296 296 296 297 298 298 298 297 297 296 294 296 293 294 297 296 295 291 292 292 292 293 293 294 294 294 294 293 291 290 290 290 290 289 289 288 288 288 289 289 289 288 288
286 286 285 286 284 284 285 285 282 277 280 291 295 296 295 294 293 291 291 292 293 293 294 293 293 294 295 296 296 297 298 298 298 298 299 298 295 294 296 297 296 296 298 298 297 297 297 297 296 296 295 294 294 294 293 293 293 294 293 292 291 291 292 292 293 292 293 293 294 293 292 291 290 290 290 289 289 288 288 288 288 288 288 288 288 288
286 286 286 284 285 286 283 283 277 279 287 288 290 293 294 294 293 291 289 292 293 294 294 293 295 297 297 298 298 299 297 296 295 295 297 296 297 298 297 297 297 297 297 298 296 295 295 294 295 294 295 294 291 293 290 293 292 290 293 290 291 290 291 291 291 292 292 293 293 292 292 291 291 290 289 289 288 288 288 288 288 288 288 288 288 287
291 288 287 284 287 281 283 283 282 288 287 288 288 287 288 287 286 288 285 288 293 294 294 294 295 296 297 297 297 297 296 294 293 297 297 296 297 296 299 298 296 294 294 294 294 295 294 291 290 291 289 290 291 291 293 292 290 290 290 289 290 290 290 289 290 291 292 292 293 292 292 291 291 290 289 288 288 287 288 288 287 288 287 287 287 287
294 287 288 285 284 287 283 281 282 281 278 284 290 292 293 293 293 293 290 287 292 294 296 295 294 295 296 296 296 294 294 292 292 295 294 293 296 295 293 291 290 290 290 290 289 289 289 289 289 289 287 289 290 290 290 289 289 289 289 289 288 287 288 288 290 292 292 292 292 292 292 291 290 289 288 287 287 287 288 288 287 287 287 287 287 286
293 293 289 286 285 285 283 280 279 278 281 288 289 288 289 293 293 288 288 285 291 291 293 295 295 295 296 295 294 292 291 289 290 293 295 293 293 291 291 291 291 290 290 289 289 290 290 290 287 288 287 287 289 290 289 289 289 289 290 289 289 287 288 289 291 291 291 292 293 292 291 290 289 289 288 287 287 287 287 287 287 287 286 286 286 286
288 288 287 284 283 285 283 281 279 283 283 287 288 288 288 289 293 290 281 281 291 289 291 294 294 294 294 294 294 292 290 288 290 293 290 289 289 289 290 290 290 290 290 289 287 287 287 286 287 290 289 289 290 288 287 287 288 288 289 290 287 287 289 290 291 292 291 291 290 290 289 289 288 288 288 288 287 287 287 287 285 285 285 285 285 286
285 286 286 282 284 284 285 283 284 285 287 288 285 286 287 291 292 284 279 286 289 288 288 291 290 291 291 290 290 289 289 292 291 289 286 287 289 290 289 289 289 288 287 288 289 288 286 286 286 288 289 289 288 286 286 285 286 288 288 288 287 288 290 291 290 289 289 289 288 288 288 288 288 288 288 288 287 287 286 285 285 284 284 284 284 284
285 286 285 286 284 283 284 282 282 285 287 288 287 290 289 291 283 282 287 288 286 286 287 288 288 288 288 289 289 290 292 291 288 288 287 287 288 287 286 287 288 287 286 286 287 287 286 286 285 286 287 287 286 285 285 285 286 287 287 287 287 289 290 288 288 288 287 287 287 288 287 287 288 288 288 287 286 285 285 284 285 284 284 284 283 283
285 284 282 283 285 286 285 281 281 277 287 289 289 287 289 286 284 287 286 287 287 287 286 286 287 288 288 289 288 289 289 289 289 289 289 287 287 288 289 289 289 289 289 289 290 290 288 288 288 288 288 288 285 284 284 283 286 287 287 287 288 289 287 287 287 286 287 287 287 287 287 287 287 287 287 286 286 285 284 283 283 283 283 283 283 283
288 284 283 285 287 281 282 279 280 286 288 290 291 284 284 288 290 286 287 287 288 288 287 286 286 288 287 287 287 288 288 288 288 288 288 289 288 287 286 286 286 287 287 287 286 287 286 287 288 288 287 287 286 284 283 283 285 286 285 287 288 286 286 285 285 285 285 286 286 286 286 286 286 286 286 285 285 285 284 282 283 282 283 283 283 283
286 284 285 282 286 285 282 285 288 288 287 289 292 290 290 291 289 288 288 289 288 289 287 288 288 287 287 287 286 285 286 287 288 288 286 288 288 288 288 288 288 288 288 287 288 287 286 287 287 287 286 287 286 285 283 281 284 285 285 287 284 285 285 284 283 283 285 285 284 284 284 283 284 284 284 284 285 284 283 282 282 282 282 283 283 283
286 286 286 285 284 284 286 287 287 286 286 288 290 288 289 288 287 285 287 287 288 289 288 288 288 287 286 286 286 284 285 286 286 287 287 288 288 288 288 287 287 286 286 286 286 286 285 285 284 284 285 286 286 285 282 281 281 284 286 285 283 283 283 282 282 282 283 283 282 282 281 281 280 281 282 283 284 284 284 283 283 283 283 283 283 283
284 285 287 285 284 284 280 283 283 284 284 286 290 289 287 287 288 286 286 288 288 288 287 287 287 287 286 285 285 285 284 284 284 286 286 286 287 288 288 288 288 288 287 288 289 286 286 282 284 285 285 285 287 284 283 280 281 283 284 284 283 282 281 281 282 282 281 280 279 277 278 281 280 280 280 281 281 282 283 283 283 283 283 283 283 283
281 284 281 280 283 283 282 284 284 284 284 287 288 286 286 287 287 288 289 288 287 286 285 286 285 285 285 285 286 284 285 284 284 286 287 287 287 287 287 288 288 289 289 287 287 286 284 284 284 285 285 285 286 284 283 282 282 282 281 280 279 278 278 280 281 281 279 278 276 277 277 279 279 280 280 281 282 282 281 282 283 283 283 283 283 282
281 283 275 280 279 280 281 281 282 284 286 287 285 286 287 287 287 286 286 286 286 285 285 286 284 285 285 286 285 285 285 286 285 285 286 287 287 288 288 288 288 288 288 288 288 285 286 285 285 285 284 285 285 283 282 281 281 278 277 278 276 276 278 280 279 278 276 276 276 276 278 278 279 280 280 279 279 280 282 282 283 283 284 285 285 284
280 276 279 279 275 275 277 280 283 279 279 282 284 283 281 281 282 282 281 281 282 282 283 283 284 285 285 285 286 286 285 286 286 286 286 286 286 287 287 288 288 288 288 289 288 286 285 284 284 284 284 285 284 282 282 281 280 276 275 274 274 276 279 279 277 276 275 275 276 276 277 277 277 277 278 279 279 279 279 281 285 285 284 283 284 284
278 278 279 275 277 276 280 280 282 282 282 283 282 277 277 278 279 279 279 279 280 280 280 280 281 282 282 283 284 284 283 284 285 285 285 285 286 287 287 287 287 287 288 288 287 287 287 286 285 283 283 284 283 282 281 280 278 276 275 274 275 276 278 277 278 277 277 277 276 278 278 278 277 277 276 277 278 278 279 280 282 284 284 284 284 284
Wind_Speed
1 3 4 5 7 7 5 7 7 5 6 4 4 3 1 1 2 2 0 0 0 0 5 8 8 7 9 9 11 11 9 7 7 8 10 10 10 10 9 9 9 9 14 8 9 9 10 11 10 8 7 8 7 7 8 9 9 11 13 11 12 9 8 9 8 7 8 8 6 4 7 7 6 6 5 6 6 6 6 5 6 5 8 10 11 12
5 3 3 7 7 7 7 6 4 3 3 4 4 1 2 1 1 2 3 0 2 1 3 1 4 10 10 10 11 10 7 13 12 11 11 12 9 8 9 10 10 11 4 1 3 6 6 6 6 6 7 7 9 9 9 11 11 7 7 11 10 8 8 9 10 9 9 9 10 10 8 5 6 7 7 7 6 6 5 5 5 5 4 11 12 12
2 4 7 8 6 3 2 4 4 3 3 3 3 2 1 3 1 1 1 1 0 1 8 3 5 14 11 8 10 9 13 13 12 10 11 9 9 10 10 10 9 7 9 4 4 4 7 8 8 8 8 9 11 9 10 8 7 7 7 8 7 8 9 9 9 9 9 5 3 4 3 6 4 1 3 4 4 4 5 4 4 5 5 7 11 12
2 5 11 6 3 4 3 5 5 4 4 4 2 1 3 3 1 3 2 1 1 2 4 3 6 14 14 8 12 15 12 13 11 8 10 8 11 13 13 10 8 9 9 8 8 7 7 8 9 6 7 8 5 7 6 7 10 8 8 7 8 8 8 7 7 6 4 4 4 4 5 4 4 4 2 3 3 4 4 6 5 5 6 6 8 12
7 3 2 3 3 5 4 2 4 3 1 1 3 2 1 1 1 3 1 2 2 2 2 5 6 9 7 7 7 5 5 10 14 9 11 12 10 10 6 5 7 10 9 8 5 4 6 7 10 11 8 6 8 8 10 9 10 9 11 11 11 9 9 7 7 7 6 6 5 5 5 5 5 4 3 4 4 6 6 5 7 8 6 6 5 10
5 4 1 5 2 3 4 1 2 5 0 1 3 6 5 3 2 1 2 3 7 4 1 1 6 5 5 5 8 10 3 3 4 5 12 13 9 7 8 11 8 8 7 8 8 10 11 11 6 4 5 8 7 9 9 9 9 8 8 8 8 7 7 8 8 8 8 8 8 7 7 7 5 6 6 11 11 8 8 9 4 4 7 6 6 6
6 1 2 5 4 3 4 2 2 4 4 1 4 1 4 4 4 3 3 4 2 1 1 1 1 10 5 8 8 7 5 7 6 4 11 8 8 6 8 9 9 8 8 3 2 5 6 5 5 5 7 9 9 9 6 6 7 7 8 8 9 9 8 8 8 9 9 8 8 10 10 9 10 11 8 4 4 7 5 3 6 6 5 7 8 7
2 2 5 4 4 4 4 2 2 7 7 2 1 0 5 4 2 2 4 3 4 2 4 1 6 5 8 9 11 16 13 10 8 11 11 10 7 7 7 8 8 8 6 6 7 7 8 8 11 12 11 9 11 7 6 7 7 9 9 8 9 8 8 8 9 10 10 10 9 9 9 9 9 9 8 7 5 5 5 5 6 5 6 6 6 7
2 3 3 3 2 3 6 4 3 6 5 3 1 5 5 7 4 4 3 1 1 3 8 3 0 3 6 9 4 5 6 8 11 13 13 11 8 8 8 9 8 6 7 7 6 7 8 10 9 7 8 8 6 7 8 8 8 7 7 8 7 9 8 8 10 10 9 9 10 10 9 9 7 6 5 5 6 6 6 7 5 6 6 6 6 6
2 4 6 7 6 5 3 1 1 8 4 2 2 5 5 6 5 3 2 2 4 2 8 3 4 2 12 5 4 1 2 8 9 12 11 9 9 7 7 6 4 3 5 3 4 6 7 7 8 7 5 5 7 6 6 6 6 7 6 8 8 8 8 8 9 10 10 9 9 9 9 9 7 6 4 6 7 7 7 8 8 7 6 7 6 6
1 1 4 4 4 4 5 1 1 1 3 5 6 8 6 7 4 3 5 3 4 4 5 7 9 3 8 3 6 7 7 8 10 4 4 6 5 5 3 4 5 5 3 3 2 3 5 4 5 5 7 7 5 5 6 6 7 7 8 8 9 9 8 8 10 10 11 10 9 10 10 10 10 9 7 7 7 7 8 9 8 8 7 6 7 7
2 2 1 1 2 4 3 5 6 2 4 5 2 3 5 3 5 3 3 5 1 8 4 5 8 5 6 4 5 5 4 4 7 5 5 6 3 2 3 4 4 5 5 4 4 4 4 3 3 4 5 5 6 5 6 6 6 7 8 8 9 7 9 9 9 10 11 10 10 9 9 10 9 9 8 10 9 9 10 9 9 8 7 7 7 7
1 1 1 2 2 8 4 8 4 5 3 5 7 7 4 2 3 2 2 2 5 7 1 2 2 2 16 4 5 6 8 3 6 6 6 3 2 3 3 5 5 4 4 5 5 5 4 6 6 6 5 5 6 8 7 8 7 7 7 9 10 10 9 10 9 11 10 10 10 10 9 8 7 8 8 8 9 8 9 8 9 10 10 8 8 8
5 2 1 1 4 3 7 10 2 1 1 5 8 7 5 1 1 4 5 1 4 6 5 1 1 7 2 4 9 8 7 6 3 5 4 4 4 6 6 5 4 4 5 5 5 5 5 6 5 5 6 6 6 6 8 7 8 7 7 8 10 10 10 9 9 10 10 11 10 8 8 8 7 9 9 9 9 9 9 8 9 9 10 10 11 10
2 4 7 5 3 3 4 8 13 9 9 8 3 10 8 7 5 5 3 5 8 7 2 4 2 7 2 4 2 4 8 6 5 5 5 5 4 2 4 4 5 5 4 4 5 6 7 7 6 7 7 6 6 7 7 7 7 7 8 9 10 9 10 10 11 10 11 10 9 8 8 9 8 10 9 9 9 10 11 9 10 9 8 8 9 9
11 5 5 12 0 9 11 3 6 6 2 1 3 6 5 11 6 3 6 4 2 1 2 2 6 4 5 4 5 3 6 7 8 6 5 7 4 2 2 4 5 4 5 5 5 6 7 6 5 5 6 7 6 7 7 7 7 8 9 8 10 11 10 11 11 11 12 11 10 10 10 11 10 9 9 9 9 10 11 11 11 10 10 9 8 8
2 4 2 3 3 13 9 5 4 6 6 4 5 7 9 5 6 1 2 0 2 4 10 2 8 8 7 8 11 11 7 10 2 4 4 7 8 3 5 7 3 5 5 5 7 8 8 5 6 8 7 6 6 7 9 9 9 10 9 9 10 9 8 10 11 11 10 10 10 11 11 11 10 10 11 11 10 10 9 9 10 10 10 8 8 8
9 4 2 3 4 3 0 0 1 2 4 7 5 7 2 2 4 4 6 2 0 5 8 3 11 8 2 14 2 2 7 9 7 9 8 8 5 4 9 7 5 4 6 8 8 6 6 7 9 8 7 8 9 10 9 9 8 8 9 9 11 10 12 11 10 10 10 10 11 11 12 12 12 10 10 9 10 9 9 9 8 8 8 9 8 8
6 2 1 0 1 5 3 2 2 1 0 6 6 3 7 4 3 2 4 4 2 3 6 4 4 9 10 13 0 3 2 4 5 7 6 9 9 8 7 8 7 2 3 4 6 7 6 7 8 9 10 9 8 8 8 7 7 7 7 8 9 12 11 10 9 8 8 9 9 9 11 11 11 10 9 8 8 9 10 11 9 9 9 8 8 8
1 5 2 2 2 1 1 3 9 6 2 0 2 2 1 4 2 5 7 4 5 6 1 13 3 14 5 6 7 12 11 13 13 9 8 13 11 7 6 7 7 4 5 4 5 6 7 7 8 10 10 10 10 9 7 7 6 9 9 9 9 7 6 6 9 9 10 10 9 8 8 9 10 10 9 9 9 10 12 12 11 10 9 10 9 9
2 3 7 1 3 2 3 5 11 11 10 3 2 3 1 0 2 4 0 5 6 4 5 4 10 10 3 8 9 10 12 13 11 12 10 10 7 7 6 6 6 6 5 6 7 6 6 7 7 7 7 6 5 6 7 8 10 9 8 10 9 9 8 9 10 10 10 9 10 9 11 11 10 11 10 9 10 10 11 10 11 11 10 8 10 9
3 1 7 2 1 4 9 5 7 13 17 14 14 12 13 9 4 5 9 1 2 3 4 2 13 14 6 5 9 9 10 10 8 10 9 7 8 8 6 6 6 5 6 7 6 5 5 5 5 5 4 3 4 6 8 8 7 7 10 8 6 8 9 10 10 11 9 8 9 11 11 10 9 10 10 11 10 11 10 10 10 10 9 10 10 10
8 4 8 7 10 11 5 2 1 4 3 1 2 8 7 8 6 6 8 5 1 4 3 4 0 18 8 5 5 6 6 7 7 6 8 6 3 5 6 6 5 6 6 4 4 4 4 5 5 4 5 5 7 8 8 7 9 10 9 8 8 9 12 10 10 8 8 9 10 12 11 10 10 9 11 12 11 11 10 9 9 9 11 11 9 9
5 3 2 2 1 1 1 2 3 1 3 4 5 2 4 7 5 6 5 7 8 3 5 4 3 15 1 0 2 1 0 1 2 6 5 4 4 5 5 4 4 3 0 1 2 2 3 4 2 3 4 5 7 9 10 8 7 7 7 8 7 12 12 9 8 8 8 9 10 10 10 11 10 10 11 12 11 12 11 9 9 9 10 10 9 11
5 4 8 2 1 1 3 3 3 3 1 3 3 3 4 3 3 3 3 2 3 8 10 8 11 16 1 6 2 3 2 2 3 1 2 1 4 4 2 1 1 1 3 3 2 3 4 4 4 6 6 7 8 9 8 7 8 7 9 8 10 12 9 9 8 8 8 8 9 8 10 10 10 12 13 13 11 12 11 10 10 9 11 9 9 10
7 6 9 7 11 11 7 8 10 7 7 3 3 9 12 13 11 6 7 4 7 7 9 7 11 14 1 3 2 2 2 2 4 4 3 1 3 5 5 3 3 2 2 3 5 5 8 7 5 5 7 7 9 9 6 5 7 7 8 10 10 10 9 9 7 9 9 9 10 10 11 11 10 13 14 13 12 13 12 10 10 10 9 10 11 10
3 4 9 13 14 15 14 7 2 8 4 7 8 11 8 9 12 11 5 7 14 14 9 10 16 20 9 4 1 3 1 2 3 4 4 4 4 3 2 4 5 4 4 5 6 7 5 5 9 10 8 9 9 8 7 7 8 9 9 10 9 10 9 9 9 10 10 10 10 11 13 13 13 12 11 12 11 10 11 12 11 10 11 9 10 11
2 5 10 12 15 15 11 5 9 16 15 16 16 12 13 12 12 15 13 17 16 7 14 14 14 11 23 10 7 6 4 3 4 4 5 4 4 4 4 4 6 5 5 6 6 8 10 11 8 8 10 9 10 7 6 9 9 9 10 11 10 9 9 9 10 9 10 10 11 13 14 13 11 10 11 9 9 10 10 11 11 11 9 9 12 12
6 8 8 8 11 14 6 3 9 11 14 14 16 15 15 15 14 17 19 22 14 12 18 16 9 16 24 12 10 14 7 8 8 8 7 4 3 4 7 9 8 6 7 7 10 10 8 9 10 10 9 9 6 7 10 9 9 9 9 9 9 8 11 10 8 9 11 11 12 15 14 10 9 9 9 9 9 10 11 11 10 10 10 11 11 10
3 5 6 5 10 11 8 6 3 11 4 4 8 14 15 18 20 22 22 22 19 13 14 18 17 20 19 8 11 11 8 6 3 3 2 2 5 7 6 7 8 9 9 10 10 10 9 10 9 10 9 7 7 9 9 9 10 11 11 10 9 9 10 7 9 11 11 12 14 14 10 9 9 10 9 10 12 11 10 10 10 10 11 12 12 11
3 4 4 2 5 9 10 5 3 4 2 2 3 3 8 12 17 21 20 18 15 14 14 17 17 18 16 3 3 7 5 1 2 5 8 11 10 6 6 8 9 10 9 8 8 10 11 11 9 7 7 9 9 10 10 10 10 8 8 9 10 10 10 7 9 11 11 14 14 12 8 9 10 9 11 12 10 10 10 11 10 11 12 12 11 12
1 3 3 2 5 8 6 6 3 2 1 1 5 9 11 11 14 11 11 10 11 17 18 14 15 18 15 4 5 5 3 4 10 11 10 9 7 4 5 10 10 8 8 10 11 10 10 10 10 9 10 10 9 8 7 8 9 6 10 11 10 12 5 7 10 12 13 14 11 10 11 11 10 10 12 10 12 11 10 9 11 12 13 12 12 12
1 2 2 2 7 11 8 8 5 4 1 6 13 19 19 9 4 4 9 12 16 12 9 11 18 17 15 3 2 9 9 7 9 12 12 8 5 6 8 11 12 6 5 8 9 9 10 10 10 9 10 9 10 9 7 7 7 9 11 10 12 4 5 10 10 12 12 12 11 12 11 10 11 12 11 11 11 9 9 11 11 13 13 14 12 9
2 2 1 1 6 7 10 3 4 4 10 15 17 12 10 14 11 9 10 12 10 9 11 12 13 13 11 9 7 9 11 10 12 14 12 8 4 4 7 10 7 6 8 10 9 9 10 9 9 9 8 8 8 7 8 6 7 11 9 8 5 5 9 9 10 11 12 11 12 13 11 10 10 11 12 10 9 10 11 12 14 13 11 10 10 13
4 3 3 2 3 8 1 7 5 16 15 13 9 3 9 12 14 18 18 14 10 10 9 11 13 16 17 12 11 12 12 11 9 12 14 6 4 5 9 10 9 9 11 10 10 9 8 8 7 7 7 7 7 7 6 7 7 8 7 6 6 7 8 9 9 9 11 12 13 11 10 10 11 12 11 10 10 11 12 13 12 12 12 11 12 13
8 9 4 3 2 1 2 7 10 7 2 4 6 9 8 8 10 10 13 15 16 14 12 14 17 17 15 16 15 12 8 8 8 9 11 1 3 7 10 8 10 10 10 8 6 6 6 6 6 6 7 6 6 7 5 7 6 5 9 4 6 7 8 7 8 10 10 13 12 11 10 11 11 12 11 11 10 11 13 13 13 13 10 9 9 9
12 6 5 6 5 7 3 7 9 5 11 9 8 6 5 6 7 10 10 12 13 14 15 16 19 19 19 17 15 10 7 5 8 15 1 4 5 9 10 8 2 4 4 5 3 5 5 4 5 5 5 6 6 6 8 6 5 6 6 6 7 6 6 5 8 11 13 13 10 10 11 12 12 12 11 10 11 13 13 13 12 10 8 10 10 10
11 12 8 10 6 9 9 9 5 6 11 14 16 1 6 7 8 9 9 8 5 11 14 15 17 18 17 14 9 7 5 6 12 14 1 5 5 4 9 5 3 2 4 5 5 4 5 5 6 5 4 6 8 6 6 6 6 6 6 6 6 5 6 6 11 13 11 10 11 12 11 11 11 11 11 10 13 14 12 10 8 10 9 11 11 11
12 13 10 13 5 7 9 9 10 10 10 7 9 4 6 8 9 5 4 10 5 7 9 11 15 14 13 11 9 5 2 6 10 10 7 8 9 6 5 6 6 5 4 3 5 6 7 7 5 6 6 6 8 8 6 8 8 7 8 7 6 5 6 10 12 11 11 12 11 9 8 9 10 11 11 12 13 12 12 12 11 9 8 9 9 10
14 10 8 10 12 10 9 10 10 5 8 7 3 1 5 4 8 7 7 4 3 2 6 10 12 10 8 7 7 5 6 7 9 3 2 4 3 4 2 3 5 6 7 6 4 4 4 5 6 8 7 7 9 6 6 6 7 7 8 9 5 6 9 12 12 10 8 8 7 7 8 8 10 11 12 13 12 11 11 9 8 9 10 9 9 9
12 9 11 15 13 13 15 10 5 6 3 6 3 2 2 6 8 9 11 3 3 5 5 6 7 5 4 4 1 2 4 2 4 5 2 3 6 7 5 0 1 2 5 5 7 6 5 4 4 6 8 8 8 6 6 5 5 8 7 7 6 9 12 11 7 7 8 7 7 7 9 9 11 13 12 11 11 10 9 9 10 9 10 10 8 8
10 8 6 11 12 11 11 12 10 3 4 6 1 8 5 7 4 8 2 1 1 4 4 6 6 5 3 4 2 1 4 6 6 5 2 2 2 5 5 7 6 3 3 5 6 4 5 5 5 6 8 7 6 6 6 5 7 8 7 6 10 13 10 6 7 7 7 7 8 8 9 10 10 11 11 9 8 9 10 8 9 10 10 9 9 11
12 10 9 12 8 7 6 7 6 8 2 3 2 3 1 5 1 0 0 1 0 2 4 2 3 2 5 6 4 4 6 8 8 10 10 6 3 5 8 8 9 9 10 9 10 8 6 9 9 8 9 8 5 4 5 5 8 9 7 9 14 8 6 6 6 7 7 8 8 9 9 9 10 10 8 8 9 11 10 8 9 9 9 10 9 10
3 5 2 6 4 9 10 11 6 1 1 3 1 4 1 3 2 2 1 4 2 1 3 3 1 1 0 1 4 6 6 6 7 6 9 10 7 5 5 6 6 7 7 7 5 8 7 8 9 9 8 9 8 5 5 4 7 8 7 13 9 6 6 6 7 6 7 8 9 9 9 9 9 9 8 9 9 9 10 9 9 9 9 10 10 9
3 5 1 3 2 5 3 2 0 1 4 3 5 5 5 4 2 3 4 2 4 5 2 3 3 0 1 1 3 4 5 6 8 8 6 10 11 10 9 9 8 8 8 8 9 8 6 9 11 11 12 11 8 6 5 4 6 10 12 10 4 6 6 7 6 6 8 8 8 8 7 7 8 8 8 9 10 10 9 8 9 9 8 9 9 9
2 3 2 3 3 2 1 3 3 2 2 5 4 3 5 3 1 3 5 4 3 1 3 3 4 1 1 2 1 3 3 5 7 10 10 10 11 11 7 7 7 6 7 7 6 6 6 7 7 9 12 14 11 7 5 4 5 9 13 7 6 6 7 6 6 7 8 7 6 6 5 6 5 6 7 8 8 9 9 10 10 9 8 9 9 9
2 1 2 2 2 2 4 3 4 1 1 4 6 3 2 3 2 2 3 3 3 4 4 4 3 4 2 2 2 4 5 5 6 8 8 8 10 10 10 10 10 8 7 9 10 8 8 6 7 9 10 12 12 6 6 5 5 8 10 10 7 7 6 6 7 7 6 6 5 3 3 5 4 4 5 6 6 7 7 7 8 8 8 9 9 8
2 1 2 2 3 5 3 1 2 3 3 4 6 4 3 3 3 3 3 3 2 3 3 5 6 5 3 2 2 3 6 5 5 8 9 10 10 10 10 11 12 12 10 6 7 7 7 8 8 10 10 11 11 6 7 7 9 8 8 8 6 5 5 6 6 7 6 5 4 4 4 4 5 6 4 5 7 8 7 7 8 9 9 10 10 9
2 2 2 2 3 5 4 3 0 1 1 5 3 5 4 3 3 5 6 7 7 8 9 8 5 5 6 6 4 4 6 6 3 5 8 10 11 11 12 13 13 11 11 12 10 7 9 9 11 11 11 13 9 6 8 8 8 7 7 6 5 4 5 7 5 5 3 3 3 4 3 4 4 5 5 4 3 3 5 9 9 9 8 7 8 9
2 1 2 3 2 2 4 3 1 2 4 6 5 7 6 6 5 6 6 9 10 10 10 11 12 8 5 5 7 9 9 11 11 8 9 10 10 11 12 14 14 15 15 12 9 8 9 9 10 12 13 13 9 8 9 9 8 6 5 4 4 4 6 6 4 3 4 3 4 3 3 3 3 3 4 5 5 4 1 4 2 4 7 6 6 8
3 5 2 3 2 3 4 4 2 2 2 4 5 6 9 8 8 11 9 8 8 8 8 9 11 13 13 12 7 6 7 9 12 12 11 10 11 10 10 11 13 15 16 15 15 16 14 12 9 9 12 13 10 10 9 9 8 6 5 4 4 4 6 5 5 4 5 4 4 4 4 4 4 3 3 3 4 4 4 3 4 6 5 4 5 7
Wind_Direction
113 98 159 187 209 203 222 175 186 196 152 120 93 107 135 164 298 308 306 276 118 35 233 231 250 255 264 258 262 263 272 267 253 246 242 243 242 243 246 242 236 232 233 226 213 205 202 201 196 185 175 181 181 181 183 186 187 180 178 170 181 178 164 159 162 169 168 176 183 179 187 181 176 171 167 176 181 184 178 170 161 183 175 171 168 168
67 92 250 213 199 190 209 205 151 88 64 123 110 72 321 53 262 259 238 308 339 141 292 272 280 267 252 259 260 264 278 265 251 248 248 245 238 239 239 245 239 238 268 192 213 220 211 202 188 174 174 166 172 197 182 188 191 182 172 181 179 169 175 178 177 177 182 190 192 184 188 158 167 167 175 183 189 184 177 174 170 165 198 175 171 170
57 176 239 224 210 174 207 166 118 129 102 49 133 141 51 296 211 313 2 8 303 71 261 309 310 282 273 255 262 249 244 250 246 233 243 240 250 249 244 243 249 260 259 259 248 213 202 193 186 180 184 189 190 180 181 178 165 171 177 188 177 180 182 188 182 176 191 181 161 164 155 154 148 211 191 169 166 164 174 182 185 178 189 195 174 173
69 291 242 240 161 122 44 86 92 67 67 106 72 73 203 247 57 288 297 359 290 174 284 333 323 287 288 264 248 249 240 253 258 248 249 229 239 243 242 236 241 250 254 245 228 206 196 188 187 180 187 188 163 164 169 171 179 180 179 181 179 186 188 185 184 175 138 131 117 94 122 115 126 168 129 116 143 169 170 192 194 202 194 209 188 175
188 230 261 154 138 131 135 75 91 90 194 336 127 130 199 260 234 168 249 285 316 339 27 325 305 297 287 304 313 293 270 250 262 267 265 258 237 247 267 277 227 237 234 236 230 186 176 180 193 192 183 156 175 182 184 181 184 189 186 183 180 181 182 175 165 163 145 131 116 90 70 85 80 66 114 136 199 198 193 185 200 208 196 196 218 184
274 272 84 129 80 81 106 95 157 125 270 328 241 179 193 177 142 44 6 46 14 343 322 76 347 305 288 281 255 270 345 288 270 239 257 252 254 254 256 251 251 247 239 214 202 189 188 191 175 149 159 179 189 192 196 189 188 182 182 177 177 172 171 171 169 163 157 165 160 152 153 165 176 181 175 197 198 188 194 203 182 199 200 200 197 205
198 337 121 164 139 102 101 142 230 125 172 95 264 199 192 142 103 84 27 62 329 232 286 87 140 275 317 291 279 280 262 258 297 272 256 261 257 251 242 248 248 238 247 243 214 185 178 180 161 180 186 191 192 203 183 185 186 183 178 179 176 175 174 169 169 164 161 169 178 182 188 190 194 199 213 190 159 182 196 164 190 201 202 199 194 200
81 73 74 66 90 112 111 141 239 143 126 219 253 204 110 88 88 124 100 114 229 243 296 270 160 235 295 269 239 247 254 267 283 272 265 257 254 250 245 245 243 237 232 211 201 191 189 179 179 189 197 191 200 185 176 186 185 183 181 176 179 176 175 174 167 171 173 176 182 187 194 196 202 205 201 180 172 161 159 181 193 195 204 204 202 193
154 167 137 133 104 118 178 202 213 138 130 213 298 143 104 123 135 108 87 147 225 26 286 328 205 297 243 267 285 246 266 270 256 253 256 263 263 254 247 247 248 230 217 203 190 190 185 189 199 195 194 201 181 180 184 186 187 183 179 177 173 178 176 178 174 172 182 180 182 189 191 202 210 198 183 164 158 168 170 184 185 194 200 202 204 196
352 167 205 154 146 194 227 273 259 158 108 253 194 74 76 68 64 92 92 56 333 41 267 203 192 214 275 225 224 26 208 257 253 245 248 252 251 252 250 246 241 211 217 229 192 180 191 194 197 195 178 174 193 189 182 181 175 179 174 178 177 182 180 176 180 178 183 183 179 189 197 199 198 189 173 168 173 176 172 188 187 188 193 194 189 188
256 322 170 103 185 188 143 63 96 131 138 128 70 62 31 36 30 12 66 84 43 284 256 195 205 155 289 254 187 153 209 200 226 275 282 272 282 269 250 188 154 151 155 160 134 168 194 201 183 161 178 190 183 185 177 179 181 177 177 178 183 184 178 180 180 180 187 188 188 194 194 196 195 194 182 181 185 176 179 189 188 188 191 186 184 176
3 356 121 285 86 119 96 70 4 54 94 111 85 114 52 346 10 28 348 35 126 264 268 235 199 170 238 288 281 244 265 231 182 195 232 253 272 223 191 220 188 164 161 154 130 132 142 133 160 164 179 182 186 177 186 186 183 182 181 176 181 181 184 186 181 182 189 190 196 198 195 198 198 193 194 197 195 189 189 189 188 187 181 190 180 179
312 231 240 21 240 127 101 85 345 13 2 78 92 67 120 255 32 313 20 276 205 225 250 303 235 8 250 229 267 278 283 273 215 194 198 193 178 213 242 228 209 189 158 159 166 158 164 173 178 189 190 179 188 192 188 189 187 185 181 180 181 190 188 189 183 188 189 192 197 196 197 201 200 208 206 205 205 191 192 191 193 186 191 181 180 188
265 290 38 224 9 251 141 135 179 90 264 120 141 143 113 152 149 241 262 238 299 294 263 302 80 254 273 292 226 231 244 227 229 238 206 182 189 203 218 220 215 206 185 183 182 186 192 191 196 194 193 196 194 196 193 191 189 190 186 186 189 194 188 189 190 191 193 199 196 194 196 197 195 209 210 208 206 194 193 189 197 197 192 189 192 181
186 311 256 130 262 176 189 177 175 169 171 203 120 155 180 150 165 209 184 202 224 221 286 281 95 233 96 248 285 244 250 293 288 266 243 242 245 224 222 207 205 199 215 198 190 199 205 208 199 198 199 200 198 198 199 195 195 189 192 189 195 193 195 193 194 192 198 198 196 193 196 198 200 206 208 211 204 192 192 190 190 195 196 197 196 192
211 213 253 194 245 161 185 208 131 93 76 235 168 79 113 220 118 178 202 161 236 333 337 211 213 187 176 264 268 280 309 303 300 310 297 279 293 315 287 218 213 209 209 202 205 224 232 219 210 207 209 207 201 203 204 200 196 197 200 197 200 198 193 195 194 198 197 198 194 195 198 203 203 206 208 210 201 197 192 188 190 195 194 195 192 196
84 251 305 170 39 179 188 143 195 153 187 221 113 209 210 176 119 103 0 305 97 36 258 153 294 269 301 280 245 257 253 262 294 313 313 276 265 287 273 257 221 213 207 202 212 219 222 218 221 215 209 206 205 205 206 204 199 200 197 199 204 205 200 198 199 199 198 197 194 200 201 202 206 207 208 207 204 196 193 191 191 188 194 197 195 192
153 230 322 127 213 274 160 184 100 7 147 103 193 224 111 101 122 146 214 347 113 207 266 120 235 282 52 285 324 243 255 276 295 264 246 260 289 270 252 270 244 225 215 213 216 224 217 209 210 211 215 211 206 205 205 208 203 204 203 201 204 205 207 206 195 198 198 200 202 200 203 205 207 209 212 209 201 190 189 196 195 191 189 197 196 193
128 258 272 1 202 285 341 122 307 342 19 154 192 209 133 251 249 300 93 245 208 270 272 272 231 263 202 243 289 339 270 268 269 256 256 262 255 243 258 267 272 238 247 223 226 230 226 216 213 210 212 216 217 211 207 204 199 205 210 212 211 212 210 204 199 193 201 202 206 205 202 202 207 210 209 208 195 188 192 194 193 193 195 192 192 189
108 183 284 344 117 298 26 127 200 206 320 149 73 116 135 99 158 144 200 170 128 241 114 274 114 261 156 225 171 229 238 248 246 243 236 233 234 236 241 249 264 258 241 240 238 229 221 220 214 209 209 210 212 210 206 199 200 211 210 210 217 221 214 207 206 197 200 200 202 208 206 207 205 205 204 202 196 196 198 195 190 192 192 193 186 194
238 165 237 262 309 101 186 202 210 162 161 195 132 205 215 20 235 117 178 156 175 179 196 260 291 257 245 192 165 205 219 228 217 227 228 233 235 233 230 241 251 257 241 240 232 225 222 224 224 224 220 218 222 217 198 193 204 210 208 219 210 210 212 214 212 206 211 194 205 200 205 207 203 204 201 203 200 200 202 197 191 191 193 179 194 183
198 189 188 130 37 236 236 231 197 181 185 176 176 196 186 141 152 167 252 22 126 147 230 166 259 280 242 199 197 208 228 221 219 208 223 233 231 223 227 241 239 258 263 240 233 215 219 231 239 243 241 232 211 221 210 200 199 210 216 216 207 212 218 215 216 213 209 204 204 205 205 208 209 204 203 205 205 206 202 198 194 189 181 192 191 183
173 148 111 182 202 208 220 275 260 193 275 255 173 224 190 188 157 165 208 247 15 238 156 198 274 264 116 211 191 220 207 217 206 184 211 227 246 256 237 240 249 224 245 244 231 233 228 219 221 218 205 209 221 227 223 203 201 209 212 207 209 210 224 213 220 215 209 206 207 210 204 202 206 206 206 204 209 210 203 199 195 187 188 190 186 188
96 111 114 287 351 327 338 322 23 21 172 271 256 155 126 196 178 175 167 186 175 220 225 250 209 266 340 356 146 149 165 260 149 177 184 174 190 220 224 241 235 237 266 344 354 330 275 246 226 210 221 228 234 233 225 219 218 211 208 207 203 218 222 212 215 211 210 213 217 211 205 204 200 205 208 208 207 210 205 197 195 189 193 189 179 187
167 255 156 144 21 339 352 344 345 332 45 197 202 204 182 175 171 177 108 115 204 213 202 174 231 252 282 325 317 14 4 44 98 160 129 147 218 213 229 227 240 326 1 356 320 277 283 265 226 224 224 227 234 236 230 225 225 217 215 200 210 223 215 213 208 206 210 211 217 216 216 212 201 204 209 211 207 208 202 201 196 193 195 184 186 188
172 172 156 170 202 212 221 202 207 206 201 233 212 206 196 182 180 141 219 187 224 240 192 208 245 250 207 351 25 2 351 292 277 264 258 130 13 5 10 358 322 21 328 274 266 264 249 242 254 254 238 237 240 241 242 240 236 233 225 218 212 216 212 212 200 208 207 205 211 217 219 219 211 210 208 209 210 205 200 199 199 195 198 191 187 187
171 212 188 191 198 217 223 220 194 122 106 185 230 204 204 198 187 191 165 200 218 228 218 224 229 256 238 220 276 237 331 253 290 330 320 318 328 326 276 323 338 322 271 259 253 257 284 284 251 245 244 236 237 231 228 231 234 232 230 230 221 217 210 206 200 205 207 207 209 215 220 217 218 213 208 208 209 204 200 200 198 195 199 193 191 191
91 201 211 208 217 224 222 197 176 159 184 203 205 208 202 190 187 187 189 220 216 214 246 231 235 253 258 223 240 249 262 281 265 259 290 299 293 301 318 306 309 312 289 272 273 264 251 253 264 256 248 244 243 243 241 236 233 231 227 231 226 217 210 209 201 202 209 209 215 219 222 216 215 217 215 208 208 207 203 199 199 200 195 190 199 198
156 202 218 197 231 236 209 184 180 184 189 196 204 203 198 198 188 195 214 224 209 203 227 240 202 229 253 235 202 241 217 230 247 263 260 254 304 330 315 306 301 290 280 278 265 262 261 259 253 252 251 248 252 250 247 245 243 240 242 238 233 215 218 208 192 202 209 211 218 225 224 209 209 211 211 207 206 208 207 201 198 195 195 198 203 203
135 235 211 191 220 238 229 215 186 191 208 215 217 212 205 193 198 205 215 220 217 216 230 243 238 233 245 249 174 222 222 195 216 228 269 301 269 264 286 295 284 276 271 267 269 271 270 263 259 255 254 260 244 245 248 248 244 238 235 238 233 224 227 189 203 205 212 215 222 228 220 208 205 204 203 205 207 207 206 202 197 196 200 203 203 202
148 272 123 111 212 239 238 188 168 153 132 237 275 212 209 214 217 213 215 223 225 236 238 246 255 262 253 201 168 241 262 330 300 287 274 269 275 267 250 250 254 253 259 267 267 267 267 273 272 268 263 257 252 242 242 244 246 245 243 243 237 229 224 188 205 212 214 221 225 225 209 206 209 199 204 210 204 204 201 203 198 200 205 206 203 203
94 244 48 78 201 249 236 140 174 96 106 203 261 255 234 212 213 218 225 221 213 221 228 236 254 254 256 123 254 251 197 255 272 264 264 267 265 264 252 254 254 247 246 255 261 266 273 271 269 268 268 271 269 260 245 249 251 247 246 243 238 237 202 192 212 215 219 225 226 218 212 213 206 203 210 204 208 203 199 198 202 206 207 205 204 204
111 101 106 115 203 240 240 116 136 123 88 268 243 236 232 221 164 198 230 232 227 222 227 225 236 244 257 224 229 279 276 253 258 268 263 250 231 227 240 253 257 266 253 245 245 249 252 255 258 263 271 275 275 279 267 242 251 245 243 241 242 217 182 210 213 219 225 226 222 221 217 210 206 211 209 209 206 199 195 199 206 210 208 208 204 192
70 113 154 155 221 245 251 137 122 138 219 231 234 228 207 228 204 195 220 218 225 190 221 225 245 264 275 266 227 245 260 257 256 261 255 249 191 201 248 255 257 253 258 260 256 250 253 260 264 266 263 271 285 281 271 253 237 249 246 244 239 195 218 211 220 217 226 226 224 222 216 209 208 211 212 206 200 196 200 201 209 211 209 206 198 203
184 165 206 192 190 236 209 98 201 224 236 243 267 244 199 208 216 225 231 228 222 219 230 249 252 252 252 252 251 248 249 258 260 262 274 257 142 190 233 259 267 254 255 264 267 261 259 264 279 291 301 298 280 276 282 282 251 260 272 246 233 222 220 219 220 222 226 228 229 222 215 211 211 213 209 203 200 200 204 206 211 208 206 203 204 203
186 191 159 213 181 328 210 185 232 231 222 304 278 232 229 209 216 217 245 243 236 228 220 234 244 250 252 251 251 253 263 272 278 260 256 301 152 224 248 240 238 246 260 267 284 293 294 291 284 283 285 289 301 293 281 271 290 286 266 257 230 235 226 223 222 229 229 232 228 218 215 212 216 215 209 204 202 205 209 210 209 208 204 204 207 209
186 179 176 231 179 226 201 223 240 340 312 283 275 253 161 156 153 175 228 245 225 221 221 231 241 246 251 255 258 273 281 286 287 278 257 161 222 226 235 258 342 326 292 295 293 286 292 289 289 289 298 304 302 305 301 296 299 277 275 267 248 237 239 219 229 232 230 232 229 220 215 212 214 215 209 203 204 209 211 210 210 209 195 203 205 205
182 191 186 206 211 196 230 251 257 243 243 252 243 267 128 175 174 178 184 258 223 213 217 224 235 241 247 258 266 264 274 299 286 283 98 195 250 343 16 7 39 335 320 309 326 310 316 320 319 313 324 313 310 305 301 307 307 301 288 271 259 244 242 224 236 238 236 236 228 223 216 212 210 213 207 202 209 210 213 210 206 204 193 202 201 208
202 198 184 202 205 187 211 225 230 237 242 235 264 224 206 185 172 134 166 247 254 205 210 214 228 234 240 244 248 229 202 247 258 272 12 6 349 24 31 354 337 338 323 316 316 318 320 318 311 295 314 319 312 307 314 312 317 315 297 285 275 249 246 238 243 243 235 235 231 226 213 209 209 211 207 208 211 207 208 204 203 195 187 203 202 208
196 204 196 214 210 206 214 222 230 209 249 237 236 226 226 131 109 112 206 265 296 3 200 203 218 226 237 232 228 194 182 236 251 281 26 330 308 304 10 350 346 330 324 325 305 264 270 295 334 324 320 311 297 301 304 306 309 298 286 282 280 267 252 249 244 245 245 248 236 220 211 206 208 210 208 212 209 205 207 195 186 188 191 198 198 200
194 196 195 209 211 215 215 236 250 266 248 251 212 231 131 145 125 183 210 184 328 8 10 57 49 35 29 36 39 222 239 233 290 291 284 324 345 339 328 304 199 251 277 295 303 309 308 297 285 277 282 283 288 296 293 294 291 278 270 272 278 261 253 255 265 259 249 243 234 220 213 209 208 211 213 209 205 198 194 187 190 186 189 192 192 193
199 200 206 206 217 219 218 224 233 276 233 207 257 162 172 113 212 207 141 153 160 66 12 54 49 13 41 65 66 204 261 282 273 276 298 22 330 285 291 306 319 288 243 244 264 292 302 301 277 280 289 281 276 282 290 289 283 273 274 273 263 257 264 277 261 253 246 236 229 224 217 213 214 212 211 201 186 186 194 191 183 186 186 188 189 193
182 196 188 202 199 222 207 241 234 229 351 58 167 67 351 189 248 16 172 291 270 102 103 48 92 13 32 358 338 313 315 324 332 329 326 328 332 317 322 327 323 320 320 326 324 321 327 317 311 301 291 291 276 261 264 263 267 273 276 271 264 275 284 268 260 248 241 234 228 222 217 214 209 208 199 192 188 187 190 179 180 182 181 184 189 194
219 198 192 217 189 200 204 216 210 92 43 306 68 182 184 142 176 206 96 11 347 41 79 117 119 147 39 11 319 320 312 314 314 326 326 320 321 313 305 300 298 301 304 292 273 284 308 298 291 291 288 291 295 285 271 251 266 270 271 267 281 296 282 273 258 247 240 236 231 224 218 211 207 202 191 187 181 186 183 180 181 179 184 183 185 189
231 186 241 195 242 171 209 203 219 147 115 357 78 103 142 181 184 176 135 130 39 347 63 31 35 354 270 258 313 297 313 312 309 315 324 308 312 315 318 308 301 296 290 291 294 297 298 289 292 300 301 296 293 287 276 250 259 279 275 276 307 283 280 269 260 246 243 239 233 225 221 204 199 192 186 184 177 181 182 180 175 181 188 182 188 189
16 152 157 105 263 282 313 145 172 32 40 83 64 107 132 159 205 104 83 53 19 338 320 328 310 261 250 235 201 295 255 289 309 310 313 312 311 305 302 298 294 281 280 284 288 282 271 281 287 289 290 295 296 299 286 259 239 264 271 294 299 282 273 262 254 247 243 244 235 230 210 200 200 188 182 176 180 182 179 177 181 184 183 185 192 191
268 180 101 177 274 88 245 29 73 326 283 146 125 93 60 113 144 126 76 62 354 337 328 292 289 289 265 198 231 265 282 285 291 289 289 294 300 299 302 303 299 298 299 303 299 310 306 288 282 283 283 289 294 307 302 291 265 256 277 285 283 278 263 252 243 245 245 236 236 232 215 197 192 183 179 175 170 170 171 175 181 182 184 187 189 189
279 168 89 219 175 162 224 118 301 252 217 166 143 134 114 94 85 75 78 42 4 337 325 314 336 336 343 335 288 268 279 284 282 296 299 299 298 304 305 305 308 312 306 288 291 299 294 287 281 282 281 278 281 297 294 292 285 277 273 274 272 260 250 246 243 241 239 226 210 204 200 197 189 179 184 190 176 169 168 176 180 183 187 188 188 186
197 72 223 178 152 274 306 324 248 15 77 163 159 81 81 89 112 79 54 43 28 19 358 351 12 335 336 321 330 313 311 305 278 279 291 297 304 310 312 308 307 303 302 310 308 301 294 298 295 286 286 284 287 287 281 279 277 275 271 272 270 241 230 241 245 246 237 215 189 201 197 187 182 187 179 184 199 199 186 178 181 186 196 203 193 191
61 285 217 70 41 291 205 241 57 56 286 296 38 62 45 16 56 65 46 35 24 16 7 357 347 351 348 348 345 341 336 322 326 329 314 305 301 304 309 312 310 310 309 305 301 295 291 282 278 286 289 285 285 283 282 280 274 261 254 253 252 225 224 235 226 217 218 201 195 192 176 174 179 174 169 170 167 146 40 5 174 202 188 185 177 189
139 221 123 124 160 249 244 226 164 149 243 295 80 68 42 14 30 39 32 28 25 26 13 6 353 348 347 343 356 350 333 324 320 325 319 312 309 306 305 306 308 308 309 312 314 310 304 296 290 282 281 284 295 290 284 280 270 265 262 249 237 217 226 213 214 214 209 197 201 192 181 171 164 164 153 160 157 152 145 111 41 65 102 135 135 145